Regional Weather Roundup
Issued by NWS

Home | Current Version | Previous Version | Text Only | Print | Product List | Glossary Off
Versions: 1 2 3 4 5 6 7 8 9 10 11 12 13 14 15 16 17 18 19 20 21 22 23 24 25 26 27 28 29 30 31 32 33 34 35 36 37 38 39 40 41 42 43 44 45 46 47 48 49 50

955
ASUS44 KLIX 261205
RWRLA
LOUISIANA WEATHER ROUNDUP
NATIONAL WEATHER SERVICE NEW ORLEANS LA
600 AM CST MON JAN 26 2015

NOTE: "FAIR" INDICATES FEW OR NO CLOUDS BELOW 12,000 FEET WITH NO
      SIGNIFICANT WEATHER AND/OR OBSTRUCTIONS TO VISIBILITY.
      SKY/WX - SKY CONDITION AND SIGNIFICANT WEATHER.
      TMP - AIR TEMPERATURE.    DP   - DEWPOINT TEMPERATURE.
      RH  - RELATIVE HUMIDITY.  PRES - PRESSURE.
      HX  - HEAT INDEX.         WCI  - WIND CHILL INDEX.

*  THESE STATIONS ARE NOT NWS OR FAA STATIONS AND ARE NOT UNDER
   NWS QUALITY CONTROL.

LAZ040-048-061>063-065-066-069-261300-
SOUTHEAST LOUISIANA

CITY           SKY/WX    TMP DP  RH WIND       PRES   REMARKS
N.O. AUDUBON     N/A     50  38  62 MISG        N/A
6HR MIN TEMP:  49; 6HR MAX TEMP:  56;

N.O. INTL ARPT CLEAR     50  34  54 N14       30.07R
6HR MIN TEMP:  47; 6HR MAX TEMP:  51;

N.O. LAKEFRONT CLEAR     52  37  56 NW18      30.07R
6HR MIN TEMP:  52; 6HR MAX TEMP:  56;

N.O. DOWNTOWN* FAIR      52  32  46 N3        30.07R
6HR MIN TEMP:  52; 6HR MAX TEMP:  55;

SLIDELL        CLEAR     45  34  65 N6        30.05R
6HR MIN TEMP:  43; 6HR MAX TEMP:  53;

BATON ROUGE    CLEAR     47  32  56 NW7       30.09R
6HR MIN TEMP:  47; 6HR MAX TEMP:  55;

BOOTHVILLE     CLEAR     48  39  71 NW7       30.06R
6HR MIN TEMP:  48; 6HR MAX TEMP:  54;

BELLE CHASSE   CLEAR     50  33  52 NW6       30.06R
6HR MIN TEMP:  47; 6HR MAX TEMP:  53;

BOGALUSA*        N/A     44  34  67 N5        30.07R
6HR MIN TEMP:  41; 6HR MAX TEMP:  49;

GALLIANO*      SUNNY     45  37  73 MISG      30.09R
6HR MIN TEMP:  42; 6HR MAX TEMP:  52;

NEW ROADS*     FAIR      46  33  62 NW7       30.10R
6HR MIN TEMP:  46; 6HR MAX TEMP:  52;

GONZALES*      FAIR      46  33  60 NW5       30.08R
6HR MIN TEMP:  46; 6HR MAX TEMP:  55;

HAMMOND*       CLEAR     46  32  57 NW6       30.08R
HOUMA*         CLEAR     46  36  66 NW9       30.08R
PORT FOURCHON* SUNNY     50  39  66 NW7       30.12R

$$

LAZ041-044-053-054-261300-
SOUTHWEST LOUISIANA

CITY           SKY/WX    TMP DP  RH WIND       PRES   REMARKS
LAKE CHARLES   CLEAR     48  32  53 N13       30.14R
6HR MIN TEMP:  48; 6HR MAX TEMP:  56;

LAFAYETTE      CLEAR     47  33  58 N9        30.12R
6HR MIN TEMP:  47; 6HR MAX TEMP:  52;

PATTERSON      CLEAR     48  32  53 N8        30.10R
6HR MIN TEMP:  48; 6HR MAX TEMP:  52;

SALT POINT       N/A     48  35  60 N6        30.09R
6HR MIN TEMP:  48; 6HR MAX TEMP:  53;

NEW IBERIA     CLEAR     47  34  60 N9        30.12R
6HR MIN TEMP:  47; 6HR MAX TEMP:  51;

CHENAULT AIRPK CLEAR     45  32  61 NW12      30.15

$$

LAZ027-028-261300-
CENTRAL LOUISIANA

CITY           SKY/WX    TMP DP  RH WIND       PRES   REMARKS
FORT POLK      CLEAR     42  32  69 NW6       30.14R
6HR MIN TEMP:  41; 6HR MAX TEMP:  49;

ALEXANDRIA INT CLEAR     41  33  73 NW8       30.13R
6HR MIN TEMP:  41; 6HR MAX TEMP:  51;

ALEXANDRIA     CLEAR     43  32  65 VRB6      30.13R
6HR MIN TEMP:  43; 6HR MAX TEMP:  52;


$$

LAZ001-002-261300-
NORTHWEST LOUISIANA

CITY           SKY/WX    TMP DP  RH WIND       PRES   REMARKS
SHREVEPORT     CLEAR     39  32  76 W8        30.16R WCI  33
6HR MIN TEMP:  39; 6HR MAX TEMP:  47;

BARKSDALE AFB  CLEAR     39  31  72 N7        30.16R WCI  34
6HR MIN TEMP:  39; 6HR MAX TEMP:  47;

DTN SHREVEPORT CLEAR     42  31  64 NW9       30.16R
6HR MIN TEMP:  42; 6HR MAX TEMP:  49;


$$

LAZ014-016-261300-
NORTHEAST LOUISIANA

CITY           SKY/WX    TMP DP  RH WIND       PRES   REMARKS
MONROE         CLEAR     41  33  73 NW8       30.13R
6HR MIN TEMP:  41; 6HR MAX TEMP:  49;

TALLULAH       CLOUDY    44  35  70 NW8       30.09S
6HR MIN TEMP:  40; 6HR MAX TEMP:  50;


$$




USA.gov is the U.S. government's official web portal to all federal, state and local government web resources and services.